When you browse on this site, cookies collect data to enhance your experience and personalize the content and advertising you see.
Visit our Privacy Policy to learn more. By continuing to use the site, you agree to this use of cookies and data.
  • In Hungary
  • List of Countries
  • For 7 days
  • Water Temperature
  • Weather Map
  • News
  • Weather Widgets
  • user-avatar
    Login

    Hourly Weather Guaraciaba do Norte

    Today, 18 November, Monday

    Time Temperature Precipitation Wind Pressure Humidity
    00:00 +20°C° 0 mm 2 mps 680 mmHg 83%
    01:00 +19°C° 0 mm 2 mps 680 mmHg 85%
    02:00 +19°C° 0 mm 2 mps 680 mmHg 87%
    03:00 +18°C° 0 mm 2 mps 680 mmHg 89%
    04:00 +19°C° 0 mm 1 mps 680 mmHg 89%
    05:00 +20°C° 0 mm 1 mps 681 mmHg 89%
    06:00 +20°C° 0 mm 1 mps 681 mmHg 89%
    07:00 +22°C° 0 mm 1 mps 682 mmHg 78%
    08:00 +24°C° 0 mm 2 mps 683 mmHg 68%
    09:00 +26°C° 0 mm 3 mps 684 mmHg 57%
    10:00 +29°C° 0 mm 3 mps 683 mmHg 48%
    11:00 +31°C° 0 mm 3 mps 683 mmHg 39%
    12:00 +35°C° 0 mm 3 mps 683 mmHg 30%
    13:00 +35°C° 0 mm 2 mps 683 mmHg 27%
    14:00 +36°C° 0 mm 2 mps 682 mmHg 24%
    15:00 +36°C° 0 mm 2 mps 681 mmHg 22%
    16:00 +34°C° 0 mm 2 mps 681 mmHg 24%
    17:00 +31°C° 0 mm 2 mps 681 mmHg 27%
    18:00 +29°C° 0 mm 1 mps 681 mmHg 29%
    19:00 +27°C° 0 mm 1 mps 681 mmHg 42%
    20:00 +25°C° 0 mm 1 mps 682 mmHg 55%
    21:00 +23°C° 0 mm 1 mps 682 mmHg 68%
    22:00 +23°C° 0 mm 1 mps 682 mmHg 72%
    23:00 +22°C° 0 mm 1 mps 682 mmHg 76%

    Tomorrow, 19 November, Tuesday

    Time Temperature Precipitation Wind Pressure Humidity
    00:00 +21°C° 0 mm 1 mps 681 mmHg 80%
    01:00 +21°C° 0 mm 1 mps 681 mmHg 83%
    02:00 +20°C° 0 mm 1 mps 681 mmHg 86%
    03:00 +20°C° 0 mm 1 mps 681 mmHg 89%
    04:00 +20°C° 0.1 mm 1 mps 681 mmHg 88%
    05:00 +20°C° 0.1 mm 2 mps 682 mmHg 87%
    06:00 +20°C° 0.1 mm 2 mps 682 mmHg 86%
    07:00 +23°C° 0 mm 2 mps 683 mmHg 76%
    08:00 +25°C° 0 mm 3 mps 683 mmHg 65%
    09:00 +27°C° 0 mm 3 mps 684 mmHg 55%
    10:00 +29°C° 0 mm 3 mps 684 mmHg 47%
    11:00 +33°C° 0 mm 3 mps 684 mmHg 40%
    12:00 +35°C° 0 mm 3 mps 683 mmHg 33%
    13:00 +35°C° 0 mm 3 mps 683 mmHg 31%
    14:00 +35°C° 0 mm 3 mps 682 mmHg 29%
    15:00 +35°C° 0 mm 3 mps 682 mmHg 28%
    16:00 +32°C° 0 mm 2 mps 681 mmHg 31%
    17:00 +30°C° 0 mm 1 mps 681 mmHg 34%
    18:00 +29°C° 0 mm 1 mps 681 mmHg 37%
    19:00 +27°C° 0 mm 1 mps 681 mmHg 47%
    20:00 +25°C° 0 mm 2 mps 681 mmHg 56%
    21:00 +24°C° 0 mm 2 mps 681 mmHg 65%
    22:00 +23°C° 0 mm 2 mps 681 mmHg 71%
    23:00 +21°C° 0 mm 2 mps 681 mmHg 76%

    Day after tomorrow, 20 November, Wednesday

    Time Temperature Precipitation Wind Pressure Humidity
    00:00 +21°C° 0 mm 2 mps 681 mmHg 81%
    01:00 +20°C° 0 mm 2 mps 681 mmHg 83%
    02:00 +20°C° 0 mm 2 mps 681 mmHg 85%
    03:00 +19°C° 0 mm 2 mps 680 mmHg 88%
    04:00 +19°C° 0 mm 2 mps 681 mmHg 87%
    05:00 +20°C° 0 mm 2 mps 681 mmHg 87%
    06:00 +20°C° 0 mm 2 mps 682 mmHg 86%
    07:00 +23°C° 0 mm 2 mps 682 mmHg 77%
    08:00 +24°C° 0 mm 2 mps 683 mmHg 67%
    09:00 +26°C° 0 mm 3 mps 683 mmHg 57%
    10:00 +28°C° 0 mm 3 mps 683 mmHg 49%
    11:00 +31°C° 0 mm 3 mps 683 mmHg 40%
    12:00 +34°C° 0 mm 3 mps 683 mmHg 32%
    13:00 +34°C° 0 mm 3 mps 682 mmHg 31%
    14:00 +34°C° 0 mm 3 mps 682 mmHg 30%
    15:00 +34°C° 0 mm 3 mps 681 mmHg 29%
    16:00 +32°C° 0 mm 2 mps 681 mmHg 32%
    17:00 +30°C° 0 mm 2 mps 681 mmHg 36%
    18:00 +28°C° 0 mm 1 mps 681 mmHg 40%
    19:00 +27°C° 0 mm 2 mps 681 mmHg 49%
    20:00 +25°C° 0 mm 2 mps 681 mmHg 59%
    21:00 +23°C° 0 mm 2 mps 681 mmHg 69%
    22:00 +23°C° 0 mm 2 mps 681 mmHg 71%
    23:00 +21°C° 0 mm 2 mps 681 mmHg 74%

    21 November, Thursday

    Time Temperature Precipitation Wind Pressure Humidity
    00:00 +20°C° 0 mm 2 mps 681 mmHg 77%
    01:00 +20°C° 0 mm 2 mps 680 mmHg 80%
    02:00 +19°C° 0 mm 2 mps 680 mmHg 83%
    03:00 +19°C° 0 mm 2 mps 680 mmHg 86%
    04:00 +19°C° 0 mm 2 mps 680 mmHg 86%
    05:00 +19°C° 0 mm 2 mps 681 mmHg 86%
    06:00 +19°C° 0 mm 2 mps 681 mmHg 86%
    07:00 +21°C° 0 mm 2 mps 681 mmHg 78%
    08:00 +22°C° 0 mm 3 mps 682 mmHg 70%
    09:00 +25°C° 0 mm 3 mps 682 mmHg 62%
    10:00 +27°C° 0 mm 3 mps 682 mmHg 53%
    11:00 +30°C° 0 mm 3 mps 682 mmHg 44%
    12:00 +34°C° 0 mm 3 mps 682 mmHg 35%
    13:00 +34°C° 0 mm 3 mps 682 mmHg 31%
    14:00 +35°C° 0 mm 3 mps 681 mmHg 28%
    15:00 +35°C° 0 mm 3 mps 680 mmHg 25%
    16:00 +34°C° 0 mm 3 mps 680 mmHg 27%
    17:00 +31°C° 0 mm 2 mps 680 mmHg 28%
    18:00 +29°C° 0 mm 1 mps 680 mmHg 30%
    19:00 +27°C° 0 mm 2 mps 680 mmHg 40%
    20:00 +26°C° 0 mm 2 mps 681 mmHg 49%
    21:00 +24°C° 0 mm 2 mps 681 mmHg 59%
    22:00 +23°C° 0 mm 2 mps 680 mmHg 64%
    23:00 +21°C° 0 mm 2 mps 680 mmHg 69%

    22 November, Friday

    Time Temperature Precipitation Wind Pressure Humidity
    00:00 +20°C° 0 mm 2 mps 680 mmHg 74%
    01:00 +20°C° 0 mm 3 mps 680 mmHg 78%
    02:00 +20°C° 0 mm 3 mps 679 mmHg 82%
    03:00 +19°C° 0 mm 3 mps 679 mmHg 86%
    04:00 +19°C° 0 mm 3 mps 680 mmHg 85%
    05:00 +19°C° 0 mm 3 mps 680 mmHg 83%
    06:00 +19°C° 0 mm 3 mps 680 mmHg 82%
    07:00 +21°C° 0 mm 3 mps 681 mmHg 73%
    08:00 +23°C° 0 mm 4 mps 682 mmHg 64%
    09:00 +25°C° 0 mm 4 mps 682 mmHg 55%
    10:00 +28°C° 0 mm 4 mps 682 mmHg 47%
    11:00 +30°C° 0 mm 4 mps 682 mmHg 39%
    12:00 +34°C° 0 mm 4 mps 682 mmHg 31%
    13:00 +34°C° 0 mm 4 mps 682 mmHg 28%
    14:00 +35°C° 0 mm 3 mps 681 mmHg 26%
    15:00 +35°C° 0 mm 3 mps 680 mmHg 24%
    16:00 +33°C° 0 mm 3 mps 680 mmHg 27%
    17:00 +30°C° 0 mm 2 mps 680 mmHg 30%
    18:00 +28°C° 0 mm 2 mps 680 mmHg 32%
    19:00 +27°C° 0 mm 2 mps 680 mmHg 41%
    20:00 +25°C° 0 mm 2 mps 681 mmHg 50%
    21:00 +24°C° 0 mm 3 mps 681 mmHg 59%
    22:00 +22°C° 0 mm 3 mps 681 mmHg 61%
    23:00 +21°C° 0 mm 3 mps 680 mmHg 62%

    23 November, Saturday

    Time Temperature Precipitation Wind Pressure Humidity
    00:00 +20°C° 0 mm 3 mps 680 mmHg 63%
    01:00 +20°C° 0 mm 2 mps 680 mmHg 70%
    02:00 +19°C° 0 mm 2 mps 680 mmHg 77%
    03:00 +18°C° 0 mm 2 mps 679 mmHg 84%
    04:00 +19°C° 0 mm 2 mps 680 mmHg 85%
    05:00 +19°C° 0 mm 2 mps 680 mmHg 86%
    06:00 +19°C° 0 mm 3 mps 681 mmHg 87%
    07:00 +21°C° 0 mm 3 mps 681 mmHg 78%
    08:00 +24°C° 0 mm 3 mps 682 mmHg 70%
    09:00 +25°C° 0 mm 3 mps 683 mmHg 61%
    10:00 +28°C° 0 mm 3 mps 683 mmHg 51%
    11:00 +31°C° 0 mm 3 mps 683 mmHg 42%
    12:00 +34°C° 0 mm 3 mps 683 mmHg 32%
    13:00 +34°C° 0 mm 3 mps 682 mmHg 32%
    14:00 +34°C° 0 mm 3 mps 681 mmHg 33%
    15:00 +34°C° 0 mm 4 mps 681 mmHg 33%
    16:00 +31°C° 0 mm 3 mps 681 mmHg 39%
    17:00 +29°C° 0 mm 2 mps 680 mmHg 44%
    18:00 +28°C° 0 mm 2 mps 680 mmHg 49%
    19:00 +27°C° 0.3 mm 2 mps 681 mmHg 56%
    20:00 +25°C° 0.3 mm 2 mps 681 mmHg 63%
    21:00 +24°C° 0.3 mm 3 mps 681 mmHg 70%
    22:00 +22°C° 0.2 mm 3 mps 681 mmHg 73%
    23:00 +23°C° 0.2 mm 2 mps 681 mmHg 76%
    Show more